Location: Dompnac
(44.5644°N, 4.1026°E)
Time: 21:03:02
(UTC+00:00)

BREEZE-M TANK - Pass Details

Date: 19 September 2020
Orbit: 531 x 24756 km, 45.2° (Epoch: 27 October)

Event Time Altitude Azimuth Distance (km) Brightness Sun altitude
Rises 19:49:29 0° 256° (WSW) 7,119 8.7 -22.1°
Reaches altitude 10° 19:55:54 10° 256° (WSW) 4,244 7.4 -23.1°
Maximum altitude 20:03:51 87° 169° (S) 750 2.8 -24.4°
Enters shadow 20:04:12 75° 92° (E) 742 2.7 -24.4°
